EUTELSAT 117 WEST B

Last updated on Sun Dec 14 2025 00:02:51 GMT+0000 (Coordinated Universal Time)

1 41589U 16038B 25346.96650689 .00000001 00000+0 00000+0 0 9993 2 41589 0.0110 153.7448 0000251 269.9053 249.2194 1.00271866 34790
UTC large
Height (km)
Speed (km/s)
/
Latitude / Longitude
Inclination (degrees)
Orbital Period (minutes)
Azimuth
Elevation
Range (km)
Doppler Factor

Next 0 passes for location: London (51.5072 / 0.1276)

Sorry there are no passes over London.